This is the latest recevied weather packets stored in our database for station/object W2JBO-5. If no packets are shown the sender has not sent any weather packets the latest 10 day(s).
| Time | Temp. | Humidity | Pressure | Rain* | Wind** | Luminosity | Snow |
|---|---|---|---|---|---|---|---|
| 1777998401 | 26.67° C | 70% | - | 0 mm | - | - | - |
| 1777998098 | 26.11° C | 73% | - | 0 mm | - | - | - |
| 1777997795 | 25.56° C | 73% | - | 0 mm | - | - | - |
| 1777997492 | 26.11° C | 74% | - | 0 mm | - | - | - |
| 1777997190 | 25.56° C | 74% | - | 0 mm | - | - | - |
| 1777996887 | 25.56° C | 73% | - | 0 mm | - | - | - |
| 1777996583 | 25.56° C | 73% | - | 0 mm | - | - | - |
| 1777996280 | 25° C | 74% | - | 0 mm | - | - | - |
| 1777995976 | 25° C | 74% | - | 0 mm | - | - | - |
| 1777995672 | 25° C | 74% | - | 0 mm | - | - | - |
| 1777995369 | 25° C | 74% | - | 0 mm | - | - | - |
| 1777995067 | 25° C | 75% | - | 0 mm | - | - | - |
| 1777994763 | 25° C | 77% | - | 0 mm | - | - | - |
| 1777994459 | 25° C | 76% | - | 0 mm | - | - | - |
| 1777994154 | 25° C | 76% | - | 0 mm | - | - | - |
| 1777993852 | 25° C | 77% | - | 0 mm | - | - | - |
| 1777993548 | 25.56° C | 75% | - | 0 mm | - | - | - |
| 1777993244 | 25° C | 76% | - | 0 mm | - | - | - |
| 1777992941 | 24.44° C | 78% | - | 0 mm | - | - | - |
| 1777992639 | 25° C | 76% | 1012.7 hPa | 0 mm | - | 596 W/m² | - |
| 1777992337 | 24.44° C | 77% | 1012.7 hPa | 0 mm | - | 649 W/m² | - |
| 1777992034 | 24.44° C | 79% | 1012.7 hPa | 0 mm | - | 604 W/m² | - |
| 1777991731 | 23.89° C | 80% | 1012.7 hPa | 0 mm | - | 584 W/m² | - |
| 1777991428 | 23.89° C | 78% | 1012.7 hPa | 0 mm | - | 599 W/m² | - |
| 1777991126 | 23.33° C | 80% | 1012.7 hPa | 0 mm | - | 549 W/m² | - |
* Rain latest hour (hover to see other rain measurements)
** Current wind speed in m/s (hover to see current wind gust speed)